Flag for U.S.A. Weather past 2 weeks in Raleigh, North Carolina, U.S.A.

Now
61 °F

Passing clouds.


Feels Like: 61 °F
Forecast: 62 / 77 °F
Wind: No wind

Location: Raleigh-Durham International Airport

Current Time: Sep 18, 2014 at 4:22:33 AM

Latest Report: Sep 18, 2014 at 3:51 AM


Visibility: 10 mi

Pressure: 29.94 "Hg

Humidity: 90%

Dew point: 58 °F

Location of RaleighLocation

Historic Weather in Raleigh — Graph

°F

Raleigh temperature yesterday

Maximum temperature yesterday: 79 °F (at 2:51 PM)
Minimum temperature yesterday: 67 °F (at 5:51 AM)
Average temperature yesterday: 71 °F

Past Weeks' High & Low Weather Summary

 TemperatureHumidityPressure
High92 °F (Sep 3, 3:51 PM)94% (Sep 5, 6:51 AM)30.27 "Hg (Sep 5, 6:51 AM)
Low62 °F (Sep 14, 4:51 AM)44% (Sep 3, 3:51 PM)29.91 "Hg (Sep 17, 5:51 PM)
Average74 °F79%30.07 "Hg
* Reported Sep 3 2:51 AM — Sep 18 2:51 AM, Raleigh, Weather by CustomWeather, © 2014

Note: Actual official high and low records may vary slightly from our data, if they occured in-between our weather recording intervals... More about our weather records

Advertising

Raleigh weather history for previous 24 hours

 ConditionsComfort  
Time TempWeatherWind HumidityBarometerVisibility
2:51 AM
Sep 18
64 °FPassing clouds.No wind84%29.94 "Hg10 mi
1:51 AM65 °FPassing clouds.3 mph81%29.95 "Hg10 mi
12:51 AM66 °FPassing clouds.5 mph78%29.95 "Hg10 mi
11:51 PM
Sep 17
68 °FPassing clouds.5 mph76%29.96 "Hg10 mi
10:51 PM69 °FPassing clouds.6 mph79%29.96 "Hg10 mi
9:51 PM69 °FPartly cloudy.5 mph81%29.95 "Hg10 mi
8:51 PM69 °FPassing clouds.5 mph81%29.94 "Hg10 mi
7:51 PM71 °FScattered clouds.5 mph78%29.93 "Hg10 mi
6:51 PM74 °FScattered clouds.7 mph69%29.91 "Hg10 mi
5:51 PM76 °FScattered clouds.9 mph64%29.91 "Hg10 mi
4:51 PM76 °FBroken clouds.6 mph62%29.92 "Hg10 mi
3:51 PM77 °FScattered clouds.7 mph62%29.91 "Hg10 mi
2:51 PM79 °FScattered clouds.10 mph58%29.92 "Hg10 mi
1:51 PM76 °FBroken clouds.5 mph60%29.94 "Hg10 mi
12:51 PM74 °FBroken clouds.7 mph67%29.97 "Hg10 mi
11:51 AM74 °FBroken clouds.9 mph67%29.98 "Hg10 mi
10:51 AM73 °FBroken clouds.10 mph66%29.99 "Hg10 mi
9:51 AM70 °FBroken clouds.9 mph73%29.99 "Hg10 mi
8:51 AM69 °FPartly sunny.9 mph73%29.98 "Hg10 mi
7:51 AM67 °FPassing clouds.7 mph81%29.98 "Hg10 mi
6:51 AM67 °FMostly cloudy.6 mph85%29.97 "Hg9 mi
5:51 AM67 °FPassing clouds.6 mph90%29.95 "Hg9 mi
4:51 AM68 °FPassing clouds.6 mph90%29.94 "Hg9 mi
Weather by CustomWeather, © 2014

See weather overviewHow to use our weather pages